CW2434 Weather Reports


Display with metric or nautical units.
time (UTC)temp
F
wind
direction
speed
MPH
gust
MPH
rain 1hr
in
rain 24hr
in
rain mn
in
humidity
%
barometer
mb
20260902153056 64 110 1.0 8.0 0.00 0.39 0.00 83 1021.0
20260902151605 64 0 0.0 8.0 0.00 0.39 0.00 85 1021.2
20260902150058 64 176 0.0 5.0 0.00 0.39 0.00 82 1021.4
20260902144609 64 111 3.0 7.0 0.00 0.39 0.00 84 1021.7
20260902143104 63 0 3.0 9.0 0.00 0.39 0.00 85 1021.4
20260902141558 63 0 0.0 7.0 0.00 0.39 0.00 84 1021.4
20260902134606 63 122 0.0 1.0 0.00 0.48 0.00 86 1021.5
20260902133101 63 0 1.0 5.0 0.00 0.48 0.00 87 1021.3
20260902131613 62 0 0.0 9.0 0.00 0.48 0.00 87 1020.8
20260902130100 62 120 3.0 9.0 0.00 0.48 0.00 88 1020.5
20260902124600 61 143 3.0 10.0 0.00 0.56 0.00 89 1020.7
20260902123059 61 0 0.0 12.0 0.00 0.56 0.00 88 1020.7
20260902121556 61 113 1.0 8.0 0.00 0.56 0.00 88 1020.5
20260902120053 61 0 0.0 4.0 0.00 0.56 0.00 88 1020.6
20260902114619 60 0 0.0 3.0 0.00 0.57 0.00 89 1020.5
20260902113100 60 0 0.0 0.0 0.00 0.57 0.00 90 1020.8
20260902111603 60 0 0.0 3.0 0.00 0.57 0.00 91 1020.9
20260902110104 60 0 0.0 4.0 0.00 0.57 0.00 91 1021.1
20260902104559 60 0 0.0 8.0 0.00 0.57 0.00 91 1020.8
20260902103108 60 0 0.0 4.0 0.00 0.57 0.00 92 1020.6
20260902101600 60 196 0.0 5.0 0.00 0.57 0.00 93 1020.7
20260902100057 60 0 0.0 2.0 0.00 0.57 0.00 94 1020.3
20260902094556 60 0 0.0 0.0 0.00 0.57 0.00 94 1020.3
20260902093057 61 0 0.0 6.0 0.00 0.57 0.00 94 1020.2
20260902091600 61 0 0.0 0.0 0.00 0.57 0.00 95 1020.2
20260902090056 61 0 0.0 0.0 0.00 0.57 0.00 95 1019.9
20260902084557 61 0 0.0 0.0 0.00 0.58 0.00 95 1019.8
20260902083052 61 0 0.0 0.0 0.00 0.58 0.00 95 1019.6
20260902081557 61 0 0.0 0.0 0.00 0.58 0.00 95 1019.5
20260902080058 61 0 0.0 0.0 0.00 0.58 0.00 95 1019.6
20260902074556 61 0 0.0 0.0 0.00 0.58 0.00 95 1019.5
20260902073057 61 0 0.0 0.0 0.00 0.58 0.00 95 1019.5
20260902071605 61 0 0.0 0.0 0.00 0.58 0.00 95 1019.5
20260902070100 61 0 0.0 0.0 0.00 0.58 0.00 95 1019.6
20260902064555 61 0 0.0 0.0 0.00 0.61 0.00 95 1019.5
20260902063106 61 0 0.0 0.0 0.00 0.61 0.00 95 1019.7
20260902061555 61 0 0.0 0.0 0.00 0.61 0.00 94 1019.6
20260902060128 61 0 0.0 0.0 0.00 0.61 0.00 94 1019.8
20260902054604 61 0 0.0 3.0 0.00 0.62 0.00 94 1019.6
20260902053059 61 0 0.0 0.0 0.00 0.62 0.00 94 1019.6
20260902051555 61 0 0.0 2.0 0.00 0.62 0.00 94 1019.6
20260902050106 61 0 0.0 0.0 0.00 0.62 0.00 94 1019.6
20260902044600 61 0 0.0 8.0 0.00 0.63 0.00 94 1019.5
20260902043100 61 0 0.0 5.0 0.00 0.63 0.00 94 1019.2
20260902041610 61 196 0.0 0.0 0.00 0.63 0.00 94 1019.0
20260902040055 61 0 0.0 3.0 0.00 0.63 0.00 94 1019.1
20260902034558 61 0 1.0 7.0 0.00 0.64 0.63 94 1019.0
20260902033108 61 0 2.0 8.0 0.00 0.64 0.63 94 1018.5
20260902031558 61 0 0.0 3.0 0.00 0.64 0.63 94 1018.6
20260902024557 62 80 4.0 9.0 0.00 0.64 0.63 94 1018.3
20260902023055 62 0 0.0 0.0 0.00 0.64 0.63 94 1018.3
20260902021557 62 0 0.0 3.0 0.00 0.64 0.63 94 1018.2
20260902020057 62 0 1.0 5.0 0.00 0.64 0.63 94 1018.0
20260902014553 62 0 0.0 5.0 0.00 0.64 0.63 94 1017.5
20260902013054 62 0 0.0 5.0 0.00 0.64 0.63 94 1017.6
20260902011600 62 0 0.0 8.0 0.00 0.64 0.63 94 1017.4
20260902010058 62 0 1.0 18.0 0.00 0.64 0.63 93 1017.0
20260902004558 63 144 8.0 16.0 0.00 0.64 0.63 93 1016.7
20260902003105 63 118 10.0 20.0 0.00 0.64 0.63 93 1016.4
20260902001600 63 114 10.0 17.0 0.01 0.64 0.63 93 1016.2
20260902000117 63 77 6.0 18.0 0.03 0.64 0.63 93 1016.2
20260901234557 64 94 7.0 19.0 0.03 0.64 0.63 93 1016.1
20260901233058 65 98 6.0 18.0 0.03 0.64 0.63 93 1016.2
20260901231601 66 121 7.0 14.0 0.10 0.63 0.62 92 1016.1
20260901230113 68 0 3.0 13.0 0.31 0.61 0.60 92 1016.1
20260901224558 68 0 3.0 12.0 0.34 0.61 0.60 93 1015.7
20260901223115 69 0 5.0 14.0 0.36 0.61 0.60 93 1015.3
20260901221558 71 69 1.0 8.0 0.26 0.51 0.50 93 1015.8
20260901220135 72 24 1.0 6.0 0.04 0.29 0.28 93 1015.3
20260901214601 73 91 2.0 9.0 0.02 0.27 0.26 91 1015.4
20260901213119 75 119 1.0 5.0 0.00 0.25 0.24 89 1015.1
20260901211604 75 0 0.0 0.0 0.00 0.25 0.24 90 1015.0
20260901204614 75 0 0.0 0.0 0.00 0.25 0.24 89 1014.9
20260901203110 75 0 0.0 0.0 0.00 0.25 0.24 89 1015.0
20260901201557 75 0 0.0 1.0 0.00 0.25 0.24 90 1015.0
20260901200059 75 0 0.0 0.0 0.00 0.25 0.24 89 1015.0
20260901194557 75 0 0.0 1.0 0.00 0.25 0.24 88 1014.8
20260901193110 75 0 0.0 3.0 0.00 0.25 0.24 88 1014.8
20260901191602 75 136 0.0 4.0 0.00 0.25 0.24 87 1014.8
20260901190103 75 0 0.0 2.0 0.00 0.25 0.24 88 1014.9
20260901184600 75 0 0.0 3.0 0.00 0.25 0.24 88 1014.9
20260901183102 75 0 0.0 5.0 0.00 0.25 0.24 88 1015.0
20260901181602 75 0 0.0 6.0 0.00 0.25 0.24 89 1015.0
20260901180058 75 0 0.0 0.0 0.00 0.25 0.24 88 1015.1
20260901174555 74 0 1.0 7.0 0.00 0.25 0.24 89 1015.0
20260901173105 74 0 0.0 4.0 0.00 0.25 0.24 91 1014.9
20260901171601 73 0 1.0 9.0 0.00 0.25 0.24 90 1015.0
20260901170108 72 195 0.0 5.0 0.00 0.25 0.24 94 1015.0
20260901164608 71 0 3.0 8.0 0.00 0.25 0.24 94 1015.3
20260901163104 71 0 0.0 1.0 0.00 0.25 0.24 96 1015.2
20260901161601 70 0 0.0 5.0 0.00 0.25 0.24 96 1015.8
20260901160104 70 111 0.0 4.0 0.00 0.25 0.24 95 1015.9
20260901154557 70 0 0.0 4.0 0.00 0.25 0.24 96 1016.1